Weather History for KAJG - December, 2013

Change the Weather History Date:

Friday, December 20, 2013

  Actual Average (KLWV) Record (KLWV)
Temperature  
Mean Temperature 55 °F 33 °F  
Max Temperature 60 °F 41 °F 62 °F (2013)
Min Temperature 48 °F 26 °F -4 °F (2000)
Degree Days  
Heating Degree Days 10 32  
Month to date heating degree days 579  
Since 1 July heating degree days 1437  
Cooling Degree Days 0 0  
Month to date cooling degree days 0  
Year to date cooling degree days 1387  
Growing Degree Days 5 (Base 50)    
Moisture  
Dew Point 52 °F    
Average Humidity 85    
Maximum Humidity 100    
Minimum Humidity 77    
Precipitation  
Precipitation 0.22 in 0.10 in 1.51 in (1973)
Month to date precipitation 2.09  
Year to date precipitation 42.58  
Sea Level Pressure  
Sea Level Pressure 29.83 in    
Wind  
Wind Speed 14 mph (SSW)    
Max Wind Speed 20 mph    
Max Gust Speed 26 mph    
Visibility 9 miles    
Events Rain    
T = Trace of Precipitation, MM = Missing Value Source: NWS Daily Summary

Daily Weather History Graph

Daily Weather History Graph

Search for Another Location

Airport or City:

Trip Planner

Search our weather history database for the weather conditions in past years. The results will help you decide how hot, cold, wet, or windy it might be!

Date:

Astronomy

Dec. 20, 2013 Rise Set
Actual Time 7:04 AM CST 4:32 PM CST
Civil Twilight 6:34 AM CST 5:02 PM CST
Nautical Twilight 6:01 AM CST 5:35 PM CST
Astronomical Twilight 5:29 AM CST 6:08 PM CST
Moon 7:51 PM CST (12/20) 9:00 AM CST (12/20)
Length of Visible Light 10h 27m
Length of Day
9h 28m
Waning Gibbous, 90% of the Moon is Illuminated
Dec 20
Waning Gibbous
Dec 25
Last Quarter
Jan 1
New
Jan 7
First Quarter
Jan 15
Full

Hourly Weather History & Observations

Time (CST) Temp. Dew Point Humidity Pressure Visibility Wind Dir Wind Speed Gust Speed Precip Events Conditions
12:15 AM 51.8 °F 46.4 °F 82% 29.87 in 10.0 mi South 11.5 mph - N/A   Overcast
12:35 AM 53.6 °F 46.4 °F 77% 29.87 in 10.0 mi South 12.7 mph - N/A   Overcast
12:55 AM 53.6 °F 46.4 °F 77% 29.87 in 10.0 mi South 12.7 mph - N/A   Overcast
1:15 AM 53.6 °F 46.4 °F 77% 29.87 in 10.0 mi South 13.8 mph - N/A   Overcast
1:35 AM 53.6 °F 46.4 °F 77% 29.87 in 10.0 mi South 16.1 mph - N/A   Overcast
1:55 AM 53.6 °F 46.4 °F 77% 29.87 in 10.0 mi South 15.0 mph 19.6 mph N/A   Overcast
2:15 AM 53.6 °F 46.4 °F 77% 29.86 in 10.0 mi South 16.1 mph 20.7 mph N/A   Overcast
2:35 AM 53.6 °F 46.4 °F 77% 29.86 in 10.0 mi South 17.3 mph 20.7 mph N/A   Overcast
2:55 AM 53.6 °F 46.4 °F 77% 29.86 in 10.0 mi South 16.1 mph 20.7 mph N/A   Overcast
3:15 AM 53.6 °F 48.2 °F 82% 29.86 in 10.0 mi South 15.0 mph - N/A   Overcast
3:35 AM 53.6 °F 48.2 °F 82% 29.86 in 10.0 mi South 12.7 mph 20.7 mph N/A   Overcast
3:55 AM 53.6 °F 48.2 °F 82% 29.85 in 10.0 mi South 19.6 mph 26.5 mph N/A   Overcast
4:15 AM 53.6 °F 48.2 °F 82% 29.84 in 10.0 mi South 17.3 mph 24.2 mph N/A   Overcast
4:35 AM 53.6 °F 48.2 °F 82% 29.84 in 10.0 mi South 17.3 mph - N/A   Overcast
4:55 AM 53.6 °F 48.2 °F 82% 29.83 in 10.0 mi South 16.1 mph 21.9 mph N/A   Overcast
5:15 AM 55.4 °F 48.2 °F 77% 29.83 in 10.0 mi South 13.8 mph - N/A   Overcast
5:35 AM 55.4 °F 50.0 °F 82% 29.83 in 10.0 mi South 17.3 mph - N/A   Overcast
5:55 AM 55.4 °F 50.0 °F 82% 29.83 in 10.0 mi South 15.0 mph - N/A   Overcast
6:15 AM 55.4 °F 50.0 °F 82% 29.83 in 10.0 mi SSW 13.8 mph - N/A   Overcast
6:35 AM 55.4 °F 50.0 °F 82% 29.84 in 10.0 mi SSW 13.8 mph - N/A   Overcast
6:55 AM 55.4 °F 50.0 °F 82% 29.84 in 10.0 mi South 12.7 mph 20.7 mph N/A   Overcast
7:15 AM 55.4 °F 50.0 °F 82% 29.84 in 10.0 mi SSW 11.5 mph 16.1 mph N/A   Overcast
7:35 AM 55.4 °F 50.0 °F 82% 29.84 in 10.0 mi SSW 12.7 mph 18.4 mph N/A   Overcast
7:55 AM 55.4 °F 50.0 °F 82% 29.84 in 10.0 mi South 15.0 mph - N/A   Overcast
8:15 AM 55.4 °F 51.8 °F 88% 29.84 in 10.0 mi South 16.1 mph 21.9 mph N/A   Overcast
8:35 AM 55.4 °F 51.8 °F 88% 29.85 in 10.0 mi SSW 15.0 mph 19.6 mph N/A   Overcast
8:55 AM 55.4 °F 51.8 °F 88% 29.85 in 10.0 mi South 12.7 mph 18.4 mph N/A   Overcast
9:15 AM 55.4 °F 51.8 °F 88% 29.85 in 10.0 mi SSW 16.1 mph - N/A   Overcast
9:35 AM 55.4 °F 51.8 °F 88% 29.85 in 10.0 mi South 16.1 mph 21.9 mph N/A   Overcast
9:55 AM 55.4 °F 51.8 °F 88% 29.85 in 10.0 mi South 19.6 mph 24.2 mph N/A   Overcast
10:15 AM 55.4 °F 53.6 °F 94% 29.85 in 10.0 mi SSW 18.4 mph 25.3 mph N/A   Overcast
10:35 AM 57.2 °F 53.6 °F 88% 29.85 in 10.0 mi SSW 18.4 mph 25.3 mph N/A   Overcast
10:55 AM 57.2 °F 53.6 °F 88% 29.84 in 10.0 mi SSW 17.3 mph 23.0 mph N/A   Overcast
11:15 AM 57.2 °F 53.6 °F 88% 29.84 in 10.0 mi SSW 15.0 mph 21.9 mph N/A   Overcast
11:35 AM 57.2 °F 53.6 °F 88% 29.83 in 10.0 mi SSW 16.1 mph 23.0 mph N/A   Overcast
11:55 AM 59.0 °F 53.6 °F 82% 29.82 in 10.0 mi SSW 16.1 mph - N/A   Overcast
12:15 PM 59.0 °F 53.6 °F 82% 29.81 in 10.0 mi SSW 13.8 mph - N/A   Overcast
12:35 PM 59.0 °F 53.6 °F 82% 29.81 in 10.0 mi SSW 15.0 mph - N/A   Overcast
12:55 PM 59.0 °F 55.4 °F 88% 29.80 in 10.0 mi SSW 15.0 mph - N/A   Overcast
1:15 PM 59.0 °F 55.4 °F 88% 29.80 in 10.0 mi South 15.0 mph - N/A   Overcast
1:35 PM 59.0 °F 55.4 °F 88% 29.78 in 10.0 mi South 13.8 mph 18.4 mph N/A   Overcast
1:55 PM 59.0 °F 55.4 °F 88% 29.79 in 10.0 mi South 12.7 mph - N/A   Overcast
2:15 PM 60.8 °F 55.4 °F 82% 29.79 in 10.0 mi SSW 12.7 mph - N/A   Overcast
2:35 PM 60.8 °F 55.4 °F 82% 29.79 in 10.0 mi South 12.7 mph - N/A   Overcast
3:00 PM 60.8 °F 55.4 °F 82% 29.79 in 10.0 mi South 15.0 mph - N/A   Overcast
3:15 PM 60.8 °F 55.4 °F 82% 29.79 in 10.0 mi South 16.1 mph - N/A   Overcast
3:35 PM 60.8 °F 55.4 °F 82% 29.80 in 10.0 mi South 15.0 mph 20.7 mph N/A   Overcast
3:55 PM 60.8 °F 55.4 °F 82% 29.80 in 10.0 mi SSW 15.0 mph 20.7 mph N/A   Overcast
4:15 PM 60.8 °F 55.4 °F 82% 29.81 in 10.0 mi SSW 16.1 mph - N/A   Overcast
4:35 PM 60.8 °F 55.4 °F 82% 29.80 in 7.0 mi South 13.8 mph - N/A   Overcast
4:55 PM 59.0 °F 55.4 °F 88% 29.81 in 7.0 mi South 15.0 mph - N/A   Light Drizzle
5:10 PM 59.0 °F 55.4 °F 88% 29.80 in 10.0 mi South 16.1 mph - N/A   Overcast
5:35 PM 59.0 °F 55.4 °F 88% 29.80 in 10.0 mi South 11.5 mph 18.4 mph N/A   Overcast
5:55 PM 59.0 °F 55.4 °F 88% 29.80 in 10.0 mi SSW 10.4 mph - N/A   Overcast
6:15 PM 59.0 °F 55.4 °F 88% 29.80 in 10.0 mi South 9.2 mph - N/A   Overcast
6:35 PM 59.0 °F 55.4 °F 88% 29.80 in 10.0 mi South 13.8 mph - N/A   Light Drizzle
6:55 PM 59.0 °F 55.4 °F 88% 29.79 in 10.0 mi South 16.1 mph - N/A Rain Light Rain
7:15 PM 60.8 °F 57.2 °F 88% 29.79 in 10.0 mi South 13.8 mph 21.9 mph N/A   Overcast
7:35 PM 60.8 °F 57.2 °F 88% 29.79 in 10.0 mi South 13.8 mph - N/A   Overcast
7:55 PM 60.8 °F 57.2 °F 88% 29.79 in 10.0 mi South 18.4 mph - N/A   Overcast
8:15 PM 60.8 °F 57.2 °F 88% 29.78 in 7.0 mi South 17.3 mph - N/A Rain Rain
8:35 PM 59.0 °F 57.2 °F 94% 29.80 in 4.0 mi West 13.8 mph 18.4 mph 0.06 in Rain Heavy Rain
8:55 PM 55.4 °F 53.6 °F 94% 29.81 in 7.0 mi NW 13.8 mph 21.9 mph 0.13 in Rain Light Rain
9:15 PM 55.4 °F 53.6 °F 94% 29.83 in 5.0 mi NW 8.1 mph - 0.01 in Rain Heavy Rain
9:35 PM 51.8 °F 50.0 °F 94% 29.84 in 4.0 mi WNW 13.8 mph - 0.03 in Rain Light Rain
9:55 PM 51.8 °F 50.0 °F 94% 29.84 in 2.5 mi NW 5.8 mph - 0.05 in Rain Heavy Rain
10:15 PM 50.0 °F 50.0 °F 100% 29.83 in 3.0 mi NW 9.2 mph - 0.02 in Rain Heavy Rain
10:35 PM 50.0 °F 48.2 °F 94% 29.83 in 3.0 mi NNW 6.9 mph - 0.03 in Rain Heavy Rain
10:55 PM 50.0 °F 46.4 °F 87% 29.83 in 4.0 mi NNW 5.8 mph - 0.03 in Rain Rain
11:15 PM 50.0 °F 46.4 °F 87% 29.83 in 5.0 mi NNW 6.9 mph - N/A Rain Light Rain
11:35 PM 50.0 °F 46.4 °F 87% 29.82 in 4.0 mi NNW 4.6 mph - 0.01 in Rain Light Rain
11:55 PM 48.2 °F 46.4 °F 93% 29.84 in 5.0 mi NNW 11.5 mph - 0.01 in Rain Light Rain